Time,TemperatureF,DewpointF,PressureIn,WindDirection,WindDirectionDegrees,WindSpeedMPH,WindSpeedGustMPH,Humidity,HourlyPrecipIn,Conditions,Clouds,dailyrainin,SolarRadiationWatts/m^2,SoftwareType,DateUTC
2013-04-26 06:40:00,47.0,37.4,30.10,SW,216,1.0,1.0,69,0.00,,,0.00,63,Wunderground v.1.15,2013-04-26 13:40:00,
2013-04-26 06:45:00,47.2,37.2,30.10,SW,217,1.0,7.0,68,0.00,,,0.00,67,Wunderground v.1.15,2013-04-26 13:45:00,
2013-04-26 06:50:00,47.3,37.3,30.10,SW,217,1.0,1.0,68,0.00,,,0.00,90,Wunderground v.1.15,2013-04-26 13:50:00,
2013-04-26 06:55:00,47.4,37.4,30.10,WSW,242,1.0,7.0,68,0.00,,,0.00,135,Wunderground v.1.15,2013-04-26 13:55:00,
2013-04-26 07:00:00,47.8,37.7,30.10,SSW,210,1.0,1.0,68,0.00,,,0.00,158,Wunderground v.1.15,2013-04-26 14:00:00,
2013-04-26 07:05:00,48.3,37.8,30.11,SW,236,1.0,7.0,67,0.00,,,0.00,179,Wunderground v.1.15,2013-04-26 14:05:00,
2013-04-26 07:15:00,49.4,38.1,30.11,SW,225,1.0,6.0,65,0.00,,,0.00,207,Wunderground v.1.15,2013-04-26 14:15:00,
2013-04-26 07:20:00,49.9,38.2,30.12,SSW,200,1.0,6.0,64,0.00,,,0.00,223,Wunderground v.1.15,2013-04-26 14:20:00,
2013-04-26 07:25:00,50.1,38.4,30.12,South,184,2.0,6.0,64,0.00,,,0.00,230,Wunderground v.1.15,2013-04-26 14:25:00,
2013-04-26 07:30:00,50.3,38.6,30.12,SW,229,2.0,6.0,64,0.00,,,0.00,253,Wunderground v.1.15,2013-04-26 14:30:00,
2013-04-26 07:35:00,50.1,38.4,30.12,SW,223,2.0,6.0,64,0.00,,,0.00,269,Wunderground v.1.15,2013-04-26 14:35:00,
2013-04-26 07:40:00,50.3,38.6,30.12,SW,217,2.0,2.0,64,0.00,,,0.00,281,Wunderground v.1.15,2013-04-26 14:40:00,
2013-04-26 07:50:00,50.8,38.7,30.12,SSW,210,2.0,6.0,63,0.00,,,0.00,311,Wunderground v.1.15,2013-04-26 14:50:00,
2013-04-26 07:55:00,51.1,38.9,30.12,SSW,209,2.0,6.0,63,0.00,,,0.00,329,Wunderground v.1.15,2013-04-26 14:55:00,
2013-04-26 08:00:00,51.4,39.2,30.12,SSE,157,2.0,2.0,63,0.00,,,0.00,341,Wunderground v.1.15,2013-04-26 15:00:00,
2013-04-26 08:05:00,52.3,39.7,30.12,WSW,239,1.0,3.0,62,0.00,,,0.00,355,Wunderground v.1.15,2013-04-26 15:05:00,
2013-04-26 08:10:00,52.4,39.3,30.12,SE,134,1.0,6.0,61,0.00,,,0.00,373,Wunderground v.1.15,2013-04-26 15:10:00,
2013-04-26 08:15:00,52.7,39.6,30.12,SE,144,2.0,6.0,61,0.00,,,0.00,387,Wunderground v.1.15,2013-04-26 15:15:00,
2013-04-26 08:20:00,52.8,40.1,30.12,SSE,147,2.0,2.0,62,0.00,,,0.00,397,Wunderground v.1.15,2013-04-26 15:20:00,
2013-04-26 08:25:00,53.2,40.1,30.12,SSW,211,2.0,6.0,61,0.00,,,0.00,410,Wunderground v.1.15,2013-04-26 15:25:00,
2013-04-26 08:30:00,53.7,40.6,30.12,SSW,203,2.0,6.0,61,0.00,,,0.00,425,Wunderground v.1.15,2013-04-26 15:30:00,
2013-04-26 08:35:00,54.2,40.6,30.12,SE,139,2.0,6.0,60,0.00,,,0.00,436,Wunderground v.1.15,2013-04-26 15:35:00,
2013-04-26 08:40:00,54.7,41.5,30.12,SSE,148,2.0,7.0,61,0.00,,,0.00,450,Wunderground v.1.15,2013-04-26 15:40:00,
2013-04-26 08:45:00,55.1,41.5,30.13,SSW,212,1.0,7.0,60,0.00,,,0.00,357,Wunderground v.1.15,2013-04-26 15:45:00,
2013-04-26 08:55:00,55.7,41.6,30.13,SE,130,1.0,7.0,59,0.00,,,0.00,102,Wunderground v.1.15,2013-04-26 15:55:00,
2013-04-26 09:00:00,55.8,41.2,30.13,SW,235,1.0,7.0,58,0.00,,,0.00,160,Wunderground v.1.15,2013-04-26 16:00:00,
2013-04-26 09:05:00,55.5,41.0,30.13,SW,231,2.0,7.0,58,0.00,,,0.00,457,Wunderground v.1.15,2013-04-26 16:05:00,
2013-04-26 09:10:00,55.8,41.2,30.13,South,188,2.0,2.0,58,0.00,,,0.00,163,Wunderground v.1.15,2013-04-26 16:10:00,
2013-04-26 09:15:00,56.3,41.7,30.13,SW,224,1.0,6.0,58,0.00,,,0.00,63,Wunderground v.1.15,2013-04-26 16:15:00,
2013-04-26 09:25:00,57.1,41.5,30.13,WSW,237,1.0,6.0,56,0.00,,,0.00,58,Wunderground v.1.15,2013-04-26 16:25:00,
2013-04-26 09:30:00,57.5,42.4,30.13,SSE,149,1.0,6.0,57,0.00,,,0.00,58,Wunderground v.1.15,2013-04-26 16:30:00,
2013-04-26 09:35:00,58.0,42.8,30.13,SSW,197,1.0,6.0,57,0.00,,,0.00,72,Wunderground v.1.15,2013-04-26 16:35:00,
2013-04-26 09:40:00,58.4,43.2,30.13,SSE,157,1.0,5.0,57,0.00,,,0.00,107,Wunderground v.1.15,2013-04-26 16:40:00,
2013-04-26 09:45:00,58.8,42.7,30.13,SW,223,1.0,5.0,55,0.00,,,0.00,98,Wunderground v.1.15,2013-04-26 16:45:00,
2013-04-26 09:50:00,59.1,42.0,30.13,SW,219,1.0,1.0,53,0.00,,,0.00,65,Wunderground v.1.15,2013-04-26 16:50:00,
2013-04-26 09:55:00,59.7,43.5,30.13,SW,220,1.0,5.0,55,0.00,,,0.00,153,Wunderground v.1.15,2013-04-26 16:55:00,
2013-04-26 10:00:00,60.1,42.9,30.13,SSE,159,1.0,5.0,53,0.00,,,0.00,65,Wunderground v.1.15,2013-04-26 17:00:00,
2013-04-26 10:05:00,60.7,43.9,30.13,SSE,159,0.0,5.0,54,0.00,,,0.00,67,Wunderground v.1.15,2013-04-26 17:05:00,
2013-04-26 10:15:00,61.9,42.5,30.13,WSW,244,1.0,5.0,49,0.00,,,0.00,109,Wunderground v.1.15,2013-04-26 17:15:00,
2013-04-26 10:20:00,63.0,43.5,30.13,SSE,148,2.0,4.0,49,0.00,,,0.00,104,Wunderground v.1.15,2013-04-26 17:20:00,
2013-04-26 10:30:00,63.8,42.6,30.13,South,189,2.0,5.0,46,0.00,,,0.00,715,Wunderground v.1.15,2013-04-26 17:30:00,
2013-04-26 10:35:00,64.2,43.0,30.13,SSE,147,2.0,5.0,46,0.00,,,0.00,724,Wunderground v.1.15,2013-04-26 17:35:00,
2013-04-26 10:40:00,64.7,43.4,30.13,SSE,152,2.0,9.0,46,0.00,,,0.00,735,Wunderground v.1.15,2013-04-26 17:40:00,
2013-04-26 10:45:00,64.8,42.9,30.13,SE,142,2.0,9.0,45,0.00,,,0.00,742,Wunderground v.1.15,2013-04-26 17:45:00,
2013-04-26 10:50:00,64.9,42.5,30.13,WSW,237,3.0,3.0,44,0.00,,,0.00,751,Wunderground v.1.15,2013-04-26 17:50:00,
2013-04-26 11:00:00,66.0,44.0,30.13,SSW,203,2.0,9.0,45,0.00,,,0.00,768,Wunderground v.1.15,2013-04-26 18:00:00,
2013-04-26 11:05:00,66.2,43.0,30.13,SW,216,3.0,9.0,43,0.00,,,0.00,770,Wunderground v.1.15,2013-04-26 18:05:00,
2013-04-26 11:10:00,66.5,44.5,30.13,SW,219,3.0,3.0,45,0.00,,,0.00,775,Wunderground v.1.15,2013-04-26 18:10:00,
2013-04-26 11:15:00,66.5,43.3,30.13,WNW,297,2.0,12.0,43,0.00,,,0.00,788,Wunderground v.1.15,2013-04-26 18:15:00,
2013-04-26 11:20:00,67.1,43.8,30.13,SW,217,3.0,3.0,43,0.00,,,0.00,805,Wunderground v.1.15,2013-04-26 18:20:00,
2013-04-26 11:25:00,66.9,44.9,30.13,SSW,213,3.0,12.0,45,0.00,,,0.00,817,Wunderground v.1.15,2013-04-26 18:25:00,
2013-04-26 11:30:00,67.4,44.7,30.13,South,178,2.0,2.0,44,0.00,,,0.00,851,Wunderground v.1.15,2013-04-26 18:30:00,
2013-04-26 11:35:00,67.1,43.8,30.13,SSE,149,3.0,3.0,43,0.00,,,0.00,835,Wunderground v.1.15,2013-04-26 18:35:00,
2013-04-26 11:40:00,67.2,45.1,30.13,SSW,207,3.0,10.0,45,0.00,,,0.00,712,Wunderground v.1.15,2013-04-26 18:40:00,
2013-04-26 11:45:00,67.1,44.4,30.13,SSW,197,3.0,10.0,44,0.00,,,0.00,701,Wunderground v.1.15,2013-04-26 18:45:00,
2013-04-26 11:50:00,68.3,44.3,30.13,South,176,2.0,10.0,42,0.00,,,0.00,728,Wunderground v.1.15,2013-04-26 18:50:00,
2013-04-26 11:55:00,68.1,44.1,30.12,SE,138,1.0,10.0,42,0.00,,,0.00,689,Wunderground v.1.15,2013-04-26 18:55:00,
2013-04-26 12:05:00,67.8,45.1,30.13,SW,227,3.0,10.0,44,0.00,,,0.00,724,Wunderground v.1.15,2013-04-26 19:05:00,
2013-04-26 12:10:00,68.4,44.4,30.12,NW,308,3.0,9.0,42,0.00,,,0.00,673,Wunderground v.1.15,2013-04-26 19:10:00,
2013-04-26 12:15:00,68.2,43.6,30.12,SW,221,2.0,9.0,41,0.00,,,0.00,577,Wunderground v.1.15,2013-04-26 19:15:00,
2013-04-26 12:20:00,68.0,44.0,30.12,SW,219,3.0,9.0,42,0.00,,,0.00,629,Wunderground v.1.15,2013-04-26 19:20:00,
2013-04-26 12:25:00,68.3,44.3,30.12,SSW,194,3.0,9.0,42,0.00,,,0.00,865,Wunderground v.1.15,2013-04-26 19:25:00,
2013-04-26 12:35:00,69.0,44.3,30.12,West,267,3.0,9.0,41,0.00,,,0.00,838,Wunderground v.1.15,2013-04-26 19:35:00,
2013-04-26 12:40:00,69.9,47.0,30.11,SE,126,3.0,8.0,44,0.00,,,0.00,705,Wunderground v.1.15,2013-04-26 19:40:00,
2013-04-26 12:45:00,69.8,44.4,30.11,South,180,3.0,8.0,40,0.00,,,0.00,884,Wunderground v.1.15,2013-04-26 19:45:00,
2013-04-26 12:50:00,70.0,43.9,30.11,SW,223,3.0,3.0,39,0.00,,,0.00,875,Wunderground v.1.15,2013-04-26 19:50:00,
2013-04-26 12:55:00,69.9,43.8,30.11,WSW,248,3.0,8.0,39,0.00,,,0.00,812,Wunderground v.1.15,2013-04-26 19:55:00,
2013-04-26 13:00:00,70.0,43.9,30.11,South,184,3.0,8.0,39,0.00,,,0.00,863,Wunderground v.1.15,2013-04-26 20:00:00,
2013-04-26 13:05:00,70.6,45.1,30.11,WSW,252,3.0,8.0,40,0.00,,,0.00,858,Wunderground v.1.15,2013-04-26 20:05:00,
2013-04-26 13:10:00,71.0,44.8,30.11,SE,144,3.0,11.0,39,0.00,,,0.00,854,Wunderground v.1.15,2013-04-26 20:10:00,
2013-04-26 13:15:00,71.4,45.1,30.11,WSW,238,3.0,11.0,39,0.00,,,0.00,858,Wunderground v.1.15,2013-04-26 20:15:00,
2013-04-26 13:20:00,71.2,44.3,30.10,WSW,238,3.0,11.0,38,0.00,,,0.00,847,Wunderground v.1.15,2013-04-26 20:20:00,
2013-04-26 13:25:00,71.1,44.2,30.11,South,180,4.0,11.0,38,0.00,,,0.00,844,Wunderground v.1.15,2013-04-26 20:25:00,
2013-04-26 13:30:00,70.7,43.1,30.10,West,270,4.0,11.0,37,0.00,,,0.00,837,Wunderground v.1.15,2013-04-26 20:30:00,
2013-04-26 13:40:00,71.6,43.9,30.11,SSW,210,4.0,13.0,37,0.00,,,0.00,842,Wunderground v.1.15,2013-04-26 20:40:00,
2013-04-26 13:45:00,72.1,44.4,30.11,SSE,147,3.0,13.0,37,0.00,,,0.00,821,Wunderground v.1.15,2013-04-26 20:45:00,
2013-04-26 13:50:00,72.1,44.4,30.11,WSW,244,3.0,13.0,37,0.00,,,0.00,796,Wunderground v.1.15,2013-04-26 20:50:00,
2013-04-26 13:55:00,72.1,42.9,30.11,West,273,3.0,13.0,35,0.00,,,0.00,703,Wunderground v.1.15,2013-04-26 20:55:00,
2013-04-26 14:00:00,72.1,44.4,30.11,SW,219,3.0,3.0,37,0.00,,,0.00,828,Wunderground v.1.15,2013-04-26 21:00:00,
2013-04-26 14:10:00,72.1,42.9,30.11,WSW,251,4.0,12.0,35,0.00,,,0.00,784,Wunderground v.1.15,2013-04-26 21:10:00,
2013-04-26 14:15:00,72.3,43.1,30.10,SSE,153,4.0,12.0,35,0.00,,,0.00,773,Wunderground v.1.15,2013-04-26 21:15:00,
2013-04-26 14:20:00,72.5,42.5,30.10,West,262,3.0,12.0,34,0.00,,,0.00,796,Wunderground v.1.15,2013-04-26 21:20:00,
2013-04-26 14:25:00,73.2,43.9,30.10,SSE,157,2.0,12.0,35,0.00,,,0.00,775,Wunderground v.1.15,2013-04-26 21:25:00,
2013-04-26 14:30:00,72.5,44.0,30.10,South,184,3.0,12.0,36,0.00,,,0.00,715,Wunderground v.1.15,2013-04-26 21:30:00,
2013-04-26 14:35:00,72.1,41.4,30.09,SSW,195,4.0,12.0,33,0.00,,,0.00,752,Wunderground v.1.15,2013-04-26 21:35:00,
2013-04-26 14:40:00,72.4,40.9,30.09,West,263,4.0,10.0,32,0.00,,,0.00,640,Wunderground v.1.15,2013-04-26 21:40:00,
2013-04-26 14:45:00,73.3,40.8,30.09,South,171,3.0,10.0,31,0.00,,,0.00,759,Wunderground v.1.15,2013-04-26 21:45:00,
2013-04-26 14:50:00,73.5,38.4,30.09,SW,227,4.0,10.0,28,0.00,,,0.00,666,Wunderground v.1.15,2013-04-26 21:50:00,
2013-04-26 14:55:00,73.4,38.3,30.09,SW,234,4.0,10.0,28,0.00,,,0.00,791,Wunderground v.1.15,2013-04-26 21:55:00,
2013-04-26 15:00:00,73.7,38.6,30.09,West,273,4.0,4.0,28,0.00,,,0.00,768,Wunderground v.1.15,2013-04-26 22:00:00,
2013-04-26 15:05:00,74.2,40.8,30.08,West,279,4.0,10.0,30,0.00,,,0.00,436,Wunderground v.1.15,2013-04-26 22:05:00,
2013-04-26 15:15:00,73.0,38.0,30.08,West,259,4.0,16.0,28,0.00,,,0.00,466,Wunderground v.1.15,2013-04-26 22:15:00,
2013-04-26 15:20:00,72.5,38.4,30.09,SW,229,4.0,16.0,29,0.00,,,0.00,522,Wunderground v.1.15,2013-04-26 22:20:00,
2013-04-26 15:25:00,72.9,37.9,30.09,WSW,253,4.0,16.0,28,0.00,,,0.00,439,Wunderground v.1.15,2013-04-26 22:25:00,
2013-04-26 15:30:00,72.6,37.6,30.09,SE,140,4.0,16.0,28,0.00,,,0.00,515,Wunderground v.1.15,2013-04-26 22:30:00,
2013-04-26 15:35:00,72.7,38.6,30.08,South,170,5.0,16.0,29,0.00,,,0.00,540,Wunderground v.1.15,2013-04-26 22:35:00,
2013-04-26 15:45:00,73.0,38.9,30.09,NW,325,4.0,14.0,29,0.00,,,0.00,320,Wunderground v.1.15,2013-04-26 22:45:00,
2013-04-26 15:50:00,72.5,37.5,30.09,WSW,245,4.0,14.0,28,0.00,,,0.00,427,Wunderground v.1.15,2013-04-26 22:50:00,
2013-04-26 15:55:00,72.4,39.2,30.08,SSW,210,4.0,14.0,30,0.00,,,0.00,339,Wunderground v.1.15,2013-04-26 22:55:00,
2013-04-26 16:00:00,72.4,39.2,30.08,WSW,252,3.0,3.0,30,0.00,,,0.00,420,Wunderground v.1.15,2013-04-26 23:00:00,
2013-04-26 16:05:00,72.1,38.1,30.08,SSE,158,4.0,4.0,29,0.00,,,0.00,425,Wunderground v.1.15,2013-04-26 23:05:00,
2013-04-26 16:15:00,72.6,39.4,30.08,SE,141,3.0,11.0,30,0.00,,,0.00,608,Wunderground v.1.15,2013-04-26 23:15:00,
2013-04-26 16:20:00,73.5,39.3,30.08,WSW,238,3.0,11.0,29,0.00,,,0.00,631,Wunderground v.1.15,2013-04-26 23:20:00,
2013-04-26 16:25:00,73.8,38.6,30.08,WSW,256,3.0,11.0,28,0.00,,,0.00,550,Wunderground v.1.15,2013-04-26 23:25:00,
2013-04-26 16:30:00,74.0,38.8,30.08,ESE,119,4.0,4.0,28,0.00,,,0.00,522,Wunderground v.1.15,2013-04-26 23:30:00,
2013-04-26 16:35:00,74.1,38.9,30.08,West,263,4.0,11.0,28,0.00,,,0.00,417,Wunderground v.1.15,2013-04-26 23:35:00,
2013-04-26 16:40:00,73.9,38.7,30.08,NW,321,4.0,4.0,28,0.00,,,0.00,526,Wunderground v.1.15,2013-04-26 23:40:00,
2013-04-26 16:50:00,73.7,38.6,30.07,South,177,2.0,14.0,28,0.00,,,0.00,246,Wunderground v.1.15,2013-04-26 23:50:00,
2013-04-26 17:10:00,73.0,39.7,30.07,SW,229,3.0,3.0,30,0.00,,,0.00,165,Wunderground v.1.15,2013-04-27 00:10:00,
2013-04-26 17:15:00,72.6,39.4,30.07,SE,141,3.0,8.0,30,0.00,,,0.00,225,Wunderground v.1.15,2013-04-27 00:15:00,
2013-04-26 17:20:00,72.4,39.2,30.07,SW,221,3.0,3.0,30,0.00,,,0.00,306,Wunderground v.1.15,2013-04-27 00:20:00,
2013-04-26 17:30:00,73.0,40.6,30.07,South,183,2.0,8.0,31,0.00,,,0.00,485,Wunderground v.1.15,2013-04-27 00:30:00,
2013-04-26 17:35:00,73.4,39.2,30.07,SSW,202,3.0,8.0,29,0.00,,,0.00,403,Wunderground v.1.15,2013-04-27 00:35:00,
2013-04-26 17:45:00,73.1,38.0,30.07,South,170,4.0,10.0,28,0.00,,,0.00,279,Wunderground v.1.15,2013-04-27 00:45:00,
2013-04-26 17:50:00,72.9,38.8,30.07,WSW,252,3.0,10.0,29,0.00,,,0.00,283,Wunderground v.1.15,2013-04-27 00:50:00,
2013-04-26 18:00:00,72.5,37.5,30.07,WSW,244,3.0,3.0,28,0.00,,,0.00,162,Wunderground v.1.15,2013-04-27 01:00:00,
2013-04-26 18:05:00,72.1,38.1,30.06,WSW,255,3.0,10.0,29,0.00,,,0.00,90,Wunderground v.1.15,2013-04-27 01:05:00,
2013-04-26 18:10:00,71.8,37.8,30.06,South,190,2.0,2.0,29,0.00,,,0.00,104,Wunderground v.1.15,2013-04-27 01:10:00,
2013-04-26 18:15:00,71.7,37.7,30.06,SSW,213,2.0,11.0,29,0.00,,,0.00,93,Wunderground v.1.15,2013-04-27 01:15:00,
2013-04-26 18:20:00,71.6,36.8,30.06,West,266,2.0,11.0,28,0.00,,,0.00,100,Wunderground v.1.15,2013-04-27 01:20:00,
2013-04-26 18:25:00,71.5,37.6,30.06,WNW,291,2.0,11.0,29,0.00,,,0.00,83,Wunderground v.1.15,2013-04-27 01:25:00,
2013-04-26 18:35:00,71.3,37.4,30.05,SW,229,1.0,11.0,29,0.00,,,0.00,79,Wunderground v.1.15,2013-04-27 01:35:00,
2013-04-26 18:40:00,71.1,35.4,30.05,SSW,202,1.0,1.0,27,0.00,,,0.00,69,Wunderground v.1.15,2013-04-27 01:40:00,
2013-04-26 18:45:00,71.0,35.3,30.05,SSW,210,1.0,6.0,27,0.00,,,0.00,70,Wunderground v.1.15,2013-04-27 01:45:00,
2013-04-26 18:50:00,70.8,36.1,30.05,SSW,210,1.0,1.0,28,0.00,,,0.00,79,Wunderground v.1.15,2013-04-27 01:50:00,
2013-04-26 18:55:00,70.7,36.9,30.04,SSW,210,0.0,6.0,29,0.00,,,0.00,67,Wunderground v.1.15,2013-04-27 01:55:00,
2013-04-26 19:00:00,70.4,37.5,30.04,SSW,210,0.0,6.0,30,0.00,,,0.00,54,Wunderground v.1.15,2013-04-27 02:00:00,
2013-04-26 19:05:00,70.1,38.0,30.04,SSW,210,0.0,6.0,31,0.00,,,0.00,42,Wunderground v.1.15,2013-04-27 02:05:00,
2013-04-26 19:10:00,69.5,38.3,30.04,SSW,210,0.0,4.0,32,0.00,,,0.00,40,Wunderground v.1.15,2013-04-27 02:10:00,
2013-04-26 19:15:00,69.0,38.7,30.04,SSW,210,0.0,4.0,33,0.00,,,0.00,40,Wunderground v.1.15,2013-04-27 02:15:00,
2013-04-26 19:20:00,68.5,39.0,30.04,SSW,211,0.0,4.0,34,0.00,,,0.00,35,Wunderground v.1.15,2013-04-27 02:20:00,
2013-04-26 19:25:00,68.0,37.8,30.04,SSW,210,0.0,4.0,33,0.00,,,0.00,26,Wunderground v.1.15,2013-04-27 02:25:00,
2013-04-26 19:35:00,67.2,37.9,30.04,WSW,237,1.0,4.0,34,0.00,,,0.00,14,Wunderground v.1.15,2013-04-27 02:35:00,
2013-04-26 19:40:00,67.1,37.8,30.04,SE,142,1.0,1.0,34,0.00,,,0.00,11,Wunderground v.1.15,2013-04-27 02:40:00,
2013-04-26 19:45:00,66.9,35.3,30.04,SE,146,0.0,3.0,31,0.00,,,0.00,7,Wunderground v.1.15,2013-04-27 02:45:00,
2013-04-26 19:50:00,66.9,34.4,30.04,SE,146,1.0,3.0,30,0.00,,,0.00,0,Wunderground v.1.15,2013-04-27 02:50:00,
2013-04-26 19:55:00,67.0,33.7,30.04,SE,146,1.0,3.0,29,0.00,,,0.00,0,Wunderground v.1.15,2013-04-27 02:55:00,
2013-04-26 20:00:00,67.0,33.7,30.04,SSE,154,1.0,3.0,29,0.00,,,0.00,0,Wunderground v.1.15,2013-04-27 03:00:00,
2013-04-26 20:10:00,66.6,34.2,30.05,SSW,213,1.0,4.0,30,0.00,,,0.00,0,Wunderground v.1.15,2013-04-27 03:10:00,
2013-04-26 20:15:00,66.2,32.1,30.05,SSW,213,1.0,4.0,28,0.00,,,0.00,0,Wunderground v.1.15,2013-04-27 03:15:00,
2013-04-26 20:20:00,66.0,34.5,30.05,SSW,213,1.0,1.0,31,0.00,,,0.00,0,Wunderground v.1.15,2013-04-27 03:20:00,
2013-04-26 20:25:00,65.5,35.6,30.05,SSW,213,1.0,4.0,33,0.00,,,0.00,0,Wunderground v.1.15,2013-04-27 03:25:00,
2013-04-26 20:30:00,64.9,35.1,30.05,SSW,213,0.0,4.0,33,0.00,,,0.00,0,Wunderground v.1.15,2013-04-27 03:30:00,